THORAD DELTA 1 DEB, 8161

Orbit data source: Space-Track

THORAD DELTA 1 DEB, 8161 is space debris in LEO originally from a launch on Fri, 15 Nov 1974 UTC launched from the Air Force Western Test Range (AFWTR). Debris objects in space refer to the collection of defunct objects orbiting the Earth. Examples of debris include non-operational satellites, rocket bodies, and fragments generated from explosions, collisions, or faulty payload assembly.

Loading next visibility...
Identifier
8161, 1974-089AB
Orbit
LEO
Country
Flag of USUS
Related business
Manufacturer
Unknown
Mission
Spacecraft
Bus & Motor
Unknown
Mass
Unknown
Launch date (UTC)
1974-11-15 (51 years ago)
Launch vehicle
Unknown
Launch site
Air Force Western Test Range (AFWTR)
Object type
Payload
Rocket body
Debris
Shape & HBR
Unknown shape, 0.1 m
Radar Cross Section
Small (<0.1 m²)

Expand to show TLE details & history
Last TLE update: 13 hours ago

TLE from 13 hours ago
0 THORAD DELTA 1 DEB
1  8161U 74089AB  26129.88500428  .00000790  00000-0  84169-2 0  9995
2  8161 101.2094 169.4035 0372514 220.2582 316.2999 11.99530441583097
Epoch: 2026-05-09T21:14Z
TLE epoch observation values (Epoch: 2026-05-09T21:14:24.369Z)
Latitude
6.29923°
Longitude
164.35327°
Altitude
1,473.331 km
Speed
7.22 km/s
True Right ascension
23h 22m 36s
True Declination
6° 15' 55"
Sunlit
Object was in daylight at epoch
Visualization orbit readout
Latitude
Unknown
Longitude
Unknown
Altitude
Unknown
Speed
Unknown
Apparent Right ascension
Unknown
Apparent Declination
Unknown
Sunlit
N/A
Visualization observer readout
Local Sidereal Time
18:41:57
Azimuth
Unknown
Elevation
Unknown
Doppler factor
Unknown
Orbital elements
Apogee altitude
1,980.739 km
Perigee altitude
1,380.345 km
Semi-major axis
8,058.679 km
Eccentricity
0.03725
Inclination
101.2094°
RAAN
169.4035°
Arg. of periapsis
220.2582°
True anomaly
313.24958°
Mean anomaly
316.2999°
Eccentric anomaly
314.78504°
Mean motion
3.00018 °/min
Orbital period
119.99 mins
BSTAR
0.0084169
Loading maneuver chart data...
Computing Atmospheric mass density...
Loading historical data...
Loading historical data...
Loading historical data...
Loading historical data...
Loading historical data...
Loading historical data...
Loading historical data...

Documentation

Showing up to 5 results
|